Powrót do katalogu

COSMOS 1191

AktywnyMilitariaHEO
NORAD 11871·PAYLOAD·🇷🇺 Russia

Wystrzelony Jul 2, 1980 z Plesetsk Cosmodrome

Loading…

Następne Przeloty (najbliższe 24 godziny)

TLE

ŚwieżeSource: Space-Track

Epoka: Sep 13, 2026, 18:05 UTC

1 11871U 80057A   26256.75365541 -.00000200  00000-0  00000+0 0  9997
2 11871  66.0465  64.5777 6619269  17.9585 357.1528  2.00848041245242

Śledź COSMOS 1191 w czasie rzeczywistym z AllMySat

Download on the App Store